Location: Spring Creek
(38.2870°N, 100.2160°W)
Time: 11:26:29
(UTC+00:00)

CRYOSAT 2 - Pass Details

Date: 08 May 2021
Orbit: 714 x 725 km, 92.0° (Epoch: 22 June)

Event Time Altitude Azimuth Distance (km) Brightness Sun altitude
Exits shadow 03:35:19 43° 135° (SE) 1,006 4.6 -20.1°
Maximum altitude 03:36:37 59° 81° (E) 839 4.4 -20.2°
Drops below altitude 10° 03:41:26 10° 3° (N) 2,222 7.4 -20.9°
Sets 03:43:45 0° 0° (N) 3,146 8.4 -21.2°
